EW0592 Weather Reports


time (UTC)temp
C
wind
direction
speed
KPH
gust
KPH
rain 1hr
cm
rain 24hr
cm
rain mn
cm
humidity
%
barometer
mb
20260906113007 21 44 3.2 8.0 0.00 0.00 0.00 83 1017.0
20260906111504 21 24 0.0 1.6 0.00 0.00 0.00 83 1016.8
20260906110004 21 21 0.0 4.8 0.00 0.00 0.00 83 1016.8
20260906103057 21 23 1.6 4.8 0.00 0.00 0.00 82 1016.3
20260906101558 21 23 0.0 4.8 0.00 0.00 0.00 81 1016.2
20260906100053 21 49 1.6 6.4 0.00 0.00 0.00 81 1016.2
20260906094552 22 37 0.0 4.8 0.00 0.00 0.00 81 1016.2
20260906093057 22 67 1.6 8.0 0.00 0.00 0.00 80 1016.0
20260906091552 22 18 1.6 6.4 0.00 0.00 0.00 80 1016.1
20260906090052 22 25 1.6 8.0 0.00 0.00 0.00 81 1016.0
20260906084555 22 26 0.0 4.8 0.00 0.00 0.00 81 1016.2
20260906083049 22 86 0.0 9.7 0.00 0.00 0.00 81 1016.0
20260906081548 22 25 0.0 6.4 0.00 0.00 0.00 81 1016.0
20260906080054 22 23 0.0 8.0 0.00 0.00 0.00 82 1015.9
20260906074552 22 30 3.2 6.4 0.00 0.00 0.00 82 1016.0
20260906073046 22 38 3.2 6.4 0.00 0.00 0.00 82 1016.0
20260906071545 22 6 1.6 6.4 0.00 0.00 0.00 82 1016.2
20260906070044 22 25 4.8 9.7 0.00 0.00 0.00 82 1016.1
20260906064544 22 40 1.6 8.0 0.00 0.00 0.00 82 1016.1
20260906063043 22 27 0.0 6.4 0.00 0.00 0.00 83 1016.2
20260906061543 22 25 3.2 6.4 0.00 0.00 0.00 83 1016.2
20260906060055 22 24 3.2 8.0 0.00 0.00 0.00 83 1016.2
20260906054541 22 18 3.2 8.0 0.00 0.00 0.00 84 1016.1
20260906053039 22 32 0.0 9.7 0.00 0.00 0.00 84 1016.1
20260906051542 22 28 4.8 11.3 0.00 0.00 0.00 84 1015.7
20260906050035 22 43 4.8 8.0 0.00 0.00 0.00 84 1015.7
20260906044535 22 28 1.6 11.3 0.00 0.00 0.00 84 1015.7
20260906043031 22 28 9.7 17.7 0.00 0.00 0.00 83 1015.4
20260906041539 22 42 3.2 17.7 0.00 0.00 0.00 83 1015.2
20260906040028 22 10 6.4 17.7 0.00 0.00 0.00 83 1015.1
20260906034531 22 46 8.0 14.5 0.00 0.00 0.00 82 1015.1
20260906033031 22 6 4.8 12.9 0.00 0.00 0.00 82 1015.1
20260906031527 22 42 8.0 19.3 0.00 0.00 0.00 82 1015.1
20260906030025 22 37 6.4 22.5 0.00 0.00 0.00 82 1015.1
20260906024524 22 27 11.3 20.9 0.00 0.00 0.00 82 1015.0
20260906023024 22 79 9.7 19.3 0.00 0.00 0.00 81 1014.9
20260906021524 22 18 6.4 19.3 0.00 0.00 0.00 81 1015.0
20260906020023 22 340 9.7 20.9 0.00 0.00 0.00 80 1015.1
20260906014525 22 359 8.0 17.7 0.00 0.00 0.00 80 1015.2
20260906013021 22 23 8.0 20.9 0.00 0.00 0.00 81 1015.1
20260906011520 22 4 9.7 22.5 0.00 0.00 0.00 81 1015.0
20260906010019 22 37 6.4 20.9 0.00 0.00 0.00 81 1014.8
20260906004619 22 38 6.4 20.9 0.00 0.00 0.00 81 1014.6
20260906003016 22 47 12.9 22.5 0.00 0.00 0.00 81 1014.5
20260906001516 22 17 12.9 25.7 0.00 0.00 0.00 81 1014.5
20260906000014 22 36 14.5 25.7 0.00 0.00 0.00 81 1014.5
20260905234513 22 18 12.9 25.7 0.00 0.00 0.00 81 1014.5
20260905233010 22 37 8.0 24.1 0.00 0.00 0.00 81 1014.5
20260905231507 22 32 12.9 24.1 0.00 0.00 0.00 81 1014.4
20260905230004 22 17 12.9 22.5 0.00 0.00 0.00 81 1014.2
20260905224508 23 34 11.3 30.6 0.00 0.00 0.00 80 1014.2
20260905223001 23 17 8.0 24.1 0.00 0.00 0.00 79 1014.2
20260905221600 23 23 6.4 19.3 0.00 0.00 0.00 78 1014.1
20260905220100 24 359 14.5 25.7 0.00 0.00 0.00 78 1014.0
20260905214600 25 358 8.0 20.9 0.00 0.00 0.00 77 1013.9
20260905213058 25 48 12.9 22.5 0.00 0.00 0.00 75 1013.5
20260905211557 26 11 3.2 24.1 0.00 0.00 0.00 75 1013.6
20260905210056 25 40 6.4 25.7 0.00 0.00 0.00 75 1013.6
20260905204555 26 337 8.0 22.5 0.00 0.00 0.00 72 1013.5
20260905203055 26 27 9.7 17.7 0.00 0.00 0.00 72 1013.6
20260905201606 25 40 11.3 19.3 0.00 0.00 0.00 73 1013.6
20260905200053 25 323 6.4 22.5 0.00 0.00 0.00 74 1013.7
20260905194552 25 9 12.9 24.1 0.00 0.00 0.00 73 1013.8
20260905193052 25 27 11.3 25.7 0.00 0.00 0.00 74 1013.9
20260905191553 25 345 14.5 20.9 0.00 0.00 0.00 74 1014.0
20260905190104 25 18 6.4 20.9 0.00 0.00 0.00 75 1014.0
20260905184605 25 357 12.9 22.5 0.00 0.00 0.00 75 1014.2
20260905183049 25 54 8.0 19.3 0.00 0.00 0.00 75 1014.0
20260905181550 25 9 11.3 19.3 0.00 0.00 0.00 75 1014.1
20260905180047 25 22 9.7 19.3 0.00 0.00 0.00 77 1014.1
20260905174554 25 11 8.0 20.9 0.00 0.00 0.00 77 1014.0
20260905173046 25 13 11.3 24.1 0.00 0.00 0.00 76 1014.0
20260905171545 25 6 9.7 17.7 0.00 0.00 0.00 75 1014.1
20260905170045 25 143 9.7 22.5 0.00 0.00 0.00 76 1014.0
20260905164546 25 27 8.0 19.3 0.00 0.00 0.00 75 1014.2
20260905163044 26 73 9.7 19.3 0.00 0.00 0.00 75 1014.2
20260905161543 26 308 12.9 19.3 0.00 0.00 0.00 75 1014.1
20260905160040 25 60 8.0 19.3 0.00 0.00 0.00 76 1013.9
20260905154538 25 358 4.8 19.3 0.00 0.00 0.00 77 1013.8
20260905153037 25 342 11.3 20.9 0.00 0.00 0.00 78 1013.7
20260905151536 25 48 14.5 22.5 0.00 0.00 0.00 77 1013.6
20260905150035 25 34 11.3 22.5 0.00 0.00 0.00 77 1013.5
20260905144541 25 340 9.7 19.3 0.00 0.00 0.00 79 1013.3
20260905143034 24 356 11.3 22.5 0.00 0.00 0.00 80 1013.3
20260905141540 24 30 9.7 20.9 0.00 0.00 0.00 81 1013.2
20260905140031 24 47 11.3 20.9 0.00 0.00 0.00 82 1013.2
20260905134535 24 22 8.0 17.7 0.00 0.00 0.00 81 1013.1
20260905133030 24 19 6.4 19.3 0.00 0.00 0.00 82 1013.4
20260905131543 23 35 0.0 14.5 0.00 0.00 0.00 86 1013.1
20260905130028 23 340 4.8 11.3 0.00 0.00 0.00 86 1013.0
20260905124536 23 36 3.2 11.3 0.00 0.00 0.00 88 1012.7
20260905123023 22 360 3.2 6.4 0.00 0.00 0.00 89 1012.7
20260905121529 22 22 3.2 11.3 0.00 0.00 0.00 89 1012.5
20260905120018 22 328 4.8 14.5 0.00 0.00 0.00 89 1012.2
20260905114534 22 24 0.0 8.0 0.00 0.00 0.00 88 1012.0